ISS (NAUKA)

Last updated on Sat Oct 18 2025 00:02:11 GMT+0000 (Coordinated Universal Time)

1 49044U 21066A 25290.17015183 .00013085 00000+0 24376-3 0 9991 2 49044 51.6334 62.5333 0004260 300.9101 59.1468 15.49173581230443
UTC large
Height (km)
Speed (km/s)
/
Latitude / Longitude
Inclination (degrees)
Orbital Period (minutes)
Azimuth
Elevation
Range (km)
Doppler Factor

Next 0 passes for location: London (51.5072 / 0.1276)

Sorry there are no passes over London.